Year,Month,Day,Hour,Minute,Value (Times are PST for temperature in C)
2013,08,14,00,00,15.60
2013,08,14,00,01,15.60
2013,08,14,00,02,15.60
2013,08,14,00,03,15.60
2013,08,14,00,04,15.60
2013,08,14,00,05,15.50
2013,08,14,00,06,15.50
2013,08,14,00,07,15.50
2013,08,14,00,08,15.40
2013,08,14,00,09,15.40
2013,08,14,00,10,15.40
2013,08,14,00,11,15.40
2013,08,14,00,12,15.30
2013,08,14,00,13,15.30
2013,08,14,00,14,15.30
2013,08,14,00,15,15.30
2013,08,14,00,16,15.30
2013,08,14,00,17,15.30
2013,08,14,00,18,15.20
2013,08,14,00,19,15.20
2013,08,14,00,20,15.20
2013,08,14,00,21,15.20
2013,08,14,00,22,15.20
2013,08,14,00,23,15.20
2013,08,14,00,24,15.20
2013,08,14,00,25,15.20
2013,08,14,00,26,15.10
2013,08,14,00,27,15.10
2013,08,14,00,28,15.10
2013,08,14,00,29,15.10
2013,08,14,00,30,15.10
2013,08,14,00,31,15.10
2013,08,14,00,32,15.10
2013,08,14,00,33,15.10
2013,08,14,00,34,15.10
2013,08,14,00,35,15.10
2013,08,14,00,36,15.10
2013,08,14,00,37,15.10
2013,08,14,00,38,15.10
2013,08,14,00,39,15.10
2013,08,14,00,40,15.10
2013,08,14,00,41,15.10
2013,08,14,00,42,15.10
2013,08,14,00,43,15.10
2013,08,14,00,44,15.10
2013,08,14,00,45,15.10
2013,08,14,00,46,15.10
2013,08,14,00,47,15.10
2013,08,14,00,48,15.10
2013,08,14,00,49,15.20
2013,08,14,00,50,15.20
2013,08,14,00,51,15.20
2013,08,14,00,52,15.10
2013,08,14,00,53,15.10
2013,08,14,00,54,15.10
2013,08,14,00,55,15.10
2013,08,14,00,56,15.10
2013,08,14,00,57,15.10
2013,08,14,00,58,15.10
2013,08,14,00,59,15.10
2013,08,14,01,00,15.10
2013,08,14,01,01,15.10
2013,08,14,01,02,15.10
2013,08,14,01,03,15.10
2013,08,14,01,04,15.10
2013,08,14,01,05,15.00
2013,08,14,01,06,15.00
2013,08,14,01,07,15.00
2013,08,14,01,08,14.90
2013,08,14,01,09,14.90
2013,08,14,01,10,14.90
2013,08,14,01,11,14.90
2013,08,14,01,12,14.90
2013,08,14,01,13,14.90
2013,08,14,01,14,14.80
2013,08,14,01,15,14.80
2013,08,14,01,16,14.80
2013,08,14,01,17,14.80
2013,08,14,01,18,14.80
2013,08,14,01,19,14.80
2013,08,14,01,20,14.70
2013,08,14,01,21,14.70
2013,08,14,01,22,14.70
2013,08,14,01,23,14.70
2013,08,14,01,24,14.70
2013,08,14,01,25,14.70
2013,08,14,01,26,14.70
2013,08,14,01,27,14.70
2013,08,14,01,28,14.80
2013,08,14,01,29,14.80
2013,08,14,01,30,14.80
2013,08,14,01,31,14.80
2013,08,14,01,32,14.80
2013,08,14,01,33,14.80
2013,08,14,01,34,14.70
2013,08,14,01,35,14.70
2013,08,14,01,36,14.70
2013,08,14,01,37,14.70
2013,08,14,01,38,14.70
2013,08,14,01,39,14.70
2013,08,14,01,40,14.70
2013,08,14,01,41,14.70
2013,08,14,01,42,14.70
2013,08,14,01,43,14.60
2013,08,14,01,44,14.60
2013,08,14,01,45,14.60
2013,08,14,01,46,14.60
2013,08,14,01,47,14.60
2013,08,14,01,48,14.60
2013,08,14,01,49,14.50
2013,08,14,01,50,14.50
2013,08,14,01,51,14.50
2013,08,14,01,52,14.50
2013,08,14,01,53,14.50
2013,08,14,01,54,14.50
2013,08,14,01,55,14.50
2013,08,14,01,56,14.60
2013,08,14,01,57,14.60
2013,08,14,01,58,14.60
2013,08,14,01,59,14.60
2013,08,14,02,00,14.60
2013,08,14,02,01,14.60
2013,08,14,02,02,14.60
2013,08,14,02,03,14.60
2013,08,14,02,04,14.60
2013,08,14,02,05,14.60
2013,08,14,02,06,14.60
2013,08,14,02,07,14.60
2013,08,14,02,08,14.50
2013,08,14,02,09,14.50
2013,08,14,02,10,14.50
2013,08,14,02,11,14.50
2013,08,14,02,12,14.40
2013,08,14,02,13,14.40
2013,08,14,02,14,14.40
2013,08,14,02,15,14.30
2013,08,14,02,16,14.30
2013,08,14,02,17,14.30
2013,08,14,02,18,14.30
2013,08,14,02,19,14.30
2013,08,14,02,20,14.30
2013,08,14,02,21,14.30
2013,08,14,02,22,14.30
2013,08,14,02,23,14.20
2013,08,14,02,24,14.20
2013,08,14,02,25,14.20
2013,08,14,02,26,14.20
2013,08,14,02,27,14.20
2013,08,14,02,28,14.20
2013,08,14,02,29,14.20
2013,08,14,02,30,14.20
2013,08,14,02,31,14.20
2013,08,14,02,32,14.20
2013,08,14,02,33,14.20
2013,08,14,02,34,14.10
2013,08,14,02,35,14.10
2013,08,14,02,36,14.10
2013,08,14,02,37,14.10
2013,08,14,02,38,14.10
2013,08,14,02,39,14.10
2013,08,14,02,40,14.10
2013,08,14,02,41,14.10
2013,08,14,02,42,14.10
2013,08,14,02,43,14.10
2013,08,14,02,44,14.10
2013,08,14,02,45,14.10
2013,08,14,02,46,14.10
2013,08,14,02,47,14.10
2013,08,14,02,48,14.10
2013,08,14,02,49,14.10
2013,08,14,02,50,14.10
2013,08,14,02,51,14.10
2013,08,14,02,52,14.10
2013,08,14,02,53,14.00
2013,08,14,02,54,14.00
2013,08,14,02,55,14.00
2013,08,14,02,56,14.00
2013,08,14,02,57,13.90
2013,08,14,02,58,13.90
2013,08,14,02,59,13.90
2013,08,14,03,00,13.90
2013,08,14,03,01,13.90
2013,08,14,03,02,13.90
2013,08,14,03,03,13.90
2013,08,14,03,04,13.90
2013,08,14,03,05,13.90
2013,08,14,03,06,13.90
2013,08,14,03,07,13.90
2013,08,14,03,08,13.90
2013,08,14,03,09,13.90
2013,08,14,03,10,13.90
2013,08,14,03,11,13.90
2013,08,14,03,12,13.90
2013,08,14,03,13,13.90
2013,08,14,03,14,13.90
2013,08,14,03,15,13.90
2013,08,14,03,16,13.90
2013,08,14,03,17,13.90
2013,08,14,03,18,13.90
2013,08,14,03,19,13.90
2013,08,14,03,20,13.90
2013,08,14,03,21,13.90
2013,08,14,03,22,13.90
2013,08,14,03,23,13.90
2013,08,14,03,24,13.80
2013,08,14,03,25,13.80
2013,08,14,03,26,13.80
2013,08,14,03,27,13.80
2013,08,14,03,28,13.90
2013,08,14,03,29,13.90
2013,08,14,03,30,13.90
2013,08,14,03,31,13.90
2013,08,14,03,32,13.90
2013,08,14,03,33,13.90
2013,08,14,03,34,13.90
2013,08,14,03,35,14.00
2013,08,14,03,36,13.90
2013,08,14,03,37,13.90
2013,08,14,03,38,13.90
2013,08,14,03,39,13.90
2013,08,14,03,40,13.90
2013,08,14,03,41,13.90
2013,08,14,03,42,13.90
2013,08,14,03,43,13.90
2013,08,14,03,44,13.90
2013,08,14,03,45,13.90
2013,08,14,03,46,13.90
2013,08,14,03,47,13.80
2013,08,14,03,48,13.80
2013,08,14,03,49,13.80
2013,08,14,03,50,13.80
2013,08,14,03,51,13.80
2013,08,14,03,52,13.80
2013,08,14,03,53,13.70
2013,08,14,03,54,13.70
2013,08,14,03,55,13.70
2013,08,14,03,56,13.70
2013,08,14,03,57,13.70
2013,08,14,03,58,13.70
2013,08,14,03,59,13.70
2013,08,14,04,00,13.70
2013,08,14,04,01,13.70
2013,08,14,04,02,13.70
2013,08,14,04,03,13.70
2013,08,14,04,04,13.70
2013,08,14,04,05,13.70
2013,08,14,04,06,13.70
2013,08,14,04,07,13.70
2013,08,14,04,08,13.70
2013,08,14,04,09,13.70
2013,08,14,04,10,13.70
2013,08,14,04,11,13.70
2013,08,14,04,12,13.70
2013,08,14,04,13,13.80
2013,08,14,04,14,13.80
2013,08,14,04,15,13.80
2013,08,14,04,16,13.80
2013,08,14,04,17,13.80
2013,08,14,04,18,13.70
2013,08,14,04,19,13.70
2013,08,14,04,20,13.70
2013,08,14,04,21,13.70
2013,08,14,04,22,13.70
2013,08,14,04,23,13.70
2013,08,14,04,24,13.70
2013,08,14,04,25,13.70
2013,08,14,04,26,13.70
2013,08,14,04,27,13.70
2013,08,14,04,28,13.70
2013,08,14,04,29,13.70
2013,08,14,04,30,13.70
2013,08,14,04,31,13.70
2013,08,14,04,32,13.70
2013,08,14,04,33,13.70
2013,08,14,04,34,13.70
2013,08,14,04,35,13.70
2013,08,14,04,36,13.80
2013,08,14,04,37,13.80
2013,08,14,04,38,13.80
2013,08,14,04,39,13.80
2013,08,14,04,40,13.80
2013,08,14,04,41,13.80
2013,08,14,04,42,13.80
2013,08,14,04,43,13.80
2013,08,14,04,44,13.80
2013,08,14,04,45,13.80
2013,08,14,04,46,13.80
2013,08,14,04,47,13.80
2013,08,14,04,48,13.80
2013,08,14,04,49,13.70
2013,08,14,04,50,13.70
2013,08,14,04,51,13.70
2013,08,14,04,52,13.70
2013,08,14,04,53,13.70
2013,08,14,04,54,13.70
2013,08,14,04,55,13.70
2013,08,14,04,56,13.70
2013,08,14,04,57,13.70
2013,08,14,04,58,13.70
2013,08,14,04,59,13.70
2013,08,14,05,00,13.70
2013,08,14,05,01,13.70
2013,08,14,05,02,13.70
2013,08,14,05,03,13.70
2013,08,14,05,04,13.60
2013,08,14,05,05,13.70
2013,08,14,05,06,13.60
2013,08,14,05,07,13.60
2013,08,14,05,08,13.60
2013,08,14,05,09,13.60
2013,08,14,05,10,13.60
2013,08,14,05,11,13.60
2013,08,14,05,12,13.60
2013,08,14,05,13,13.50
2013,08,14,05,14,13.50
2013,08,14,05,15,13.50
2013,08,14,05,16,13.50
2013,08,14,05,17,13.50
2013,08,14,05,18,13.60
2013,08,14,05,19,13.60
2013,08,14,05,20,13.70
2013,08,14,05,21,13.70
2013,08,14,05,22,13.70
2013,08,14,05,23,13.70
2013,08,14,05,24,13.70
2013,08,14,05,25,13.70
2013,08,14,05,26,13.70
2013,08,14,05,27,13.70
2013,08,14,05,28,13.70
2013,08,14,05,29,13.70
2013,08,14,05,30,13.70
2013,08,14,05,31,13.70
2013,08,14,05,32,13.70
2013,08,14,05,33,13.70
2013,08,14,05,34,13.70
2013,08,14,05,35,13.60
2013,08,14,05,36,13.60
2013,08,14,05,37,13.60
2013,08,14,05,38,13.60
2013,08,14,05,39,13.60
2013,08,14,05,40,13.60
2013,08,14,05,41,13.60
2013,08,14,05,42,13.60
2013,08,14,05,43,13.60
2013,08,14,05,44,13.50
2013,08,14,05,45,13.50
2013,08,14,05,46,13.50
2013,08,14,05,47,13.50
2013,08,14,05,48,13.50
2013,08,14,05,49,13.50
2013,08,14,05,50,13.50
2013,08,14,05,51,13.40
2013,08,14,05,52,13.40
2013,08,14,05,53,13.40
2013,08,14,05,54,13.40
2013,08,14,05,55,13.40
2013,08,14,05,56,13.40
2013,08,14,05,57,13.40
2013,08,14,05,58,13.40
2013,08,14,05,59,13.40
2013,08,14,06,00,13.40
2013,08,14,06,01,13.40
2013,08,14,06,02,13.40
2013,08,14,06,03,13.40
2013,08,14,06,04,13.40
2013,08,14,06,05,13.40
2013,08,14,06,06,13.40
2013,08,14,06,07,13.40
2013,08,14,06,08,13.40
2013,08,14,06,09,13.40
2013,08,14,06,10,13.40
2013,08,14,06,11,13.30
2013,08,14,06,12,13.30
2013,08,14,06,13,13.30
2013,08,14,06,14,13.30
2013,08,14,06,15,13.30
2013,08,14,06,16,13.30
2013,08,14,06,17,13.30
2013,08,14,06,18,13.30
2013,08,14,06,19,13.30
2013,08,14,06,20,13.30
2013,08,14,06,21,13.30
2013,08,14,06,22,13.30
2013,08,14,06,23,13.30
2013,08,14,06,24,13.30
2013,08,14,06,25,13.30
2013,08,14,06,26,13.30
2013,08,14,06,27,13.30
2013,08,14,06,28,13.30
2013,08,14,06,29,13.30
2013,08,14,06,30,13.30
2013,08,14,06,31,13.30
2013,08,14,06,32,13.30
2013,08,14,06,33,13.30
2013,08,14,06,34,13.30
2013,08,14,06,35,13.30
2013,08,14,06,36,13.30
2013,08,14,06,37,13.30
2013,08,14,06,38,13.30
2013,08,14,06,39,13.40
2013,08,14,06,40,13.40
2013,08,14,06,41,13.40
2013,08,14,06,42,13.40
2013,08,14,06,43,13.40
2013,08,14,06,44,13.40
2013,08,14,06,45,13.40
2013,08,14,06,46,13.40
2013,08,14,06,47,13.50
2013,08,14,06,48,13.50
2013,08,14,06,49,13.50
2013,08,14,06,50,13.50
2013,08,14,06,51,13.50
2013,08,14,06,52,13.50
2013,08,14,06,53,13.50
2013,08,14,06,54,13.50
2013,08,14,06,55,13.60
2013,08,14,06,56,13.60
2013,08,14,06,57,13.60
2013,08,14,06,58,13.60
2013,08,14,06,59,13.60
2013,08,14,07,00,13.60
2013,08,14,07,01,13.70
2013,08,14,07,02,13.70
2013,08,14,07,03,13.70
2013,08,14,07,04,13.80
2013,08,14,07,05,13.80
2013,08,14,07,06,13.80
2013,08,14,07,07,13.90
2013,08,14,07,08,13.90
2013,08,14,07,09,14.00
2013,08,14,07,10,14.00
2013,08,14,07,11,14.10
2013,08,14,07,12,14.10
2013,08,14,07,13,14.20
2013,08,14,07,14,14.20
2013,08,14,07,15,14.20
2013,08,14,07,16,14.30
2013,08,14,07,17,14.30
2013,08,14,07,18,14.40
2013,08,14,07,19,14.40
2013,08,14,07,20,14.50
2013,08,14,07,21,14.50
2013,08,14,07,22,14.60
2013,08,14,07,23,14.70
2013,08,14,07,24,14.70
2013,08,14,07,25,14.80
2013,08,14,07,26,14.80
2013,08,14,07,27,14.90
2013,08,14,07,28,15.00
2013,08,14,07,29,15.00
2013,08,14,07,30,15.10
2013,08,14,07,31,15.10
2013,08,14,07,32,15.20
2013,08,14,07,33,15.20
2013,08,14,07,34,15.20
2013,08,14,07,35,15.30
2013,08,14,07,36,15.30
2013,08,14,07,37,15.30
2013,08,14,07,38,15.30
2013,08,14,07,39,15.40
2013,08,14,07,40,15.40
2013,08,14,07,41,15.40
2013,08,14,07,42,15.40
2013,08,14,07,43,15.40
2013,08,14,07,44,15.40
2013,08,14,07,45,15.40
2013,08,14,07,46,15.40
2013,08,14,07,47,15.40
2013,08,14,07,48,15.50
2013,08,14,07,49,15.50
2013,08,14,07,50,15.50
2013,08,14,07,51,15.60
2013,08,14,07,52,15.60
2013,08,14,07,53,15.60
2013,08,14,07,54,15.60
2013,08,14,07,55,15.60
2013,08,14,07,56,15.70
2013,08,14,07,57,15.70
2013,08,14,07,58,15.70
2013,08,14,07,59,15.70
2013,08,14,08,00,15.70
2013,08,14,08,01,15.70
2013,08,14,08,02,15.70
2013,08,14,08,03,15.70
2013,08,14,08,04,15.70
2013,08,14,08,05,15.70
2013,08,14,08,06,15.80
2013,08,14,08,07,15.80
2013,08,14,08,08,15.80
2013,08,14,08,09,15.80
2013,08,14,08,10,15.80
2013,08,14,08,11,15.80
2013,08,14,08,12,15.80
2013,08,14,08,13,15.90
2013,08,14,08,14,15.90
2013,08,14,08,15,15.90
2013,08,14,08,16,15.90
2013,08,14,08,17,16.00
2013,08,14,08,18,16.00
2013,08,14,08,19,16.00
2013,08,14,08,20,16.00
2013,08,14,08,21,16.10
2013,08,14,08,22,16.10
2013,08,14,08,23,16.10
2013,08,14,08,24,16.10
2013,08,14,08,25,16.20
2013,08,14,08,26,16.20
2013,08,14,08,27,16.20
2013,08,14,08,28,16.20
2013,08,14,08,29,16.20
2013,08,14,08,30,16.20
2013,08,14,08,31,16.20
2013,08,14,08,32,16.20
2013,08,14,08,33,16.20
2013,08,14,08,34,16.30
2013,08,14,08,35,16.30
2013,08,14,08,36,16.30
2013,08,14,08,37,16.30
2013,08,14,08,38,16.30
2013,08,14,08,39,16.30
2013,08,14,08,40,16.40
2013,08,14,08,41,16.40
2013,08,14,08,42,16.40
2013,08,14,08,43,16.40
2013,08,14,08,44,16.40
2013,08,14,08,45,16.40
2013,08,14,08,46,16.40
2013,08,14,08,47,16.40
2013,08,14,08,48,16.40
2013,08,14,08,49,16.40
2013,08,14,08,50,16.40
2013,08,14,08,51,16.40
2013,08,14,08,52,16.50
2013,08,14,08,53,16.50
2013,08,14,08,54,16.50
2013,08,14,08,55,16.50
2013,08,14,08,56,16.50
2013,08,14,08,57,16.50
2013,08,14,08,58,16.50
2013,08,14,08,59,16.50
2013,08,14,09,00,16.50
2013,08,14,09,01,16.50
2013,08,14,09,02,16.50
2013,08,14,09,03,16.50
2013,08,14,09,04,16.60
2013,08,14,09,05,16.60
2013,08,14,09,06,16.60
2013,08,14,09,07,16.60
2013,08,14,09,08,16.60
2013,08,14,09,09,16.60
2013,08,14,09,10,16.60
2013,08,14,09,11,16.60
2013,08,14,09,12,16.60
2013,08,14,09,13,16.70
2013,08,14,09,14,16.70
2013,08,14,09,15,16.70
2013,08,14,09,16,16.70
2013,08,14,09,17,16.70
2013,08,14,09,18,16.70
2013,08,14,09,19,16.80
2013,08,14,09,20,16.80
2013,08,14,09,21,16.80
2013,08,14,09,22,16.80
2013,08,14,09,23,16.80
2013,08,14,09,24,16.80
2013,08,14,09,25,16.90
2013,08,14,09,26,16.90
2013,08,14,09,27,16.90
2013,08,14,09,28,16.90
2013,08,14,09,29,16.90
2013,08,14,09,30,17.00
2013,08,14,09,31,17.00
2013,08,14,09,32,17.00
2013,08,14,09,33,17.10
2013,08,14,09,34,17.10
2013,08,14,09,35,17.10
2013,08,14,09,36,17.10
2013,08,14,09,37,17.10
2013,08,14,09,38,17.20
2013,08,14,09,39,17.20
2013,08,14,09,40,17.20
2013,08,14,09,41,17.20
2013,08,14,09,42,17.20
2013,08,14,09,43,17.20
2013,08,14,09,44,17.20
2013,08,14,09,45,17.30
2013,08,14,09,46,17.30
2013,08,14,09,47,17.30
2013,08,14,09,48,17.30
2013,08,14,09,49,17.30
2013,08,14,09,50,17.30
2013,08,14,09,51,17.30
2013,08,14,09,52,17.30
2013,08,14,09,53,17.30
2013,08,14,09,54,17.40
2013,08,14,09,55,17.40
2013,08,14,09,56,17.40
2013,08,14,09,57,17.40
2013,08,14,09,58,17.40
2013,08,14,09,59,17.50
2013,08,14,10,00,17.50
2013,08,14,10,01,17.50
2013,08,14,10,02,17.50
2013,08,14,10,03,17.60
2013,08,14,10,04,17.60
2013,08,14,10,05,17.60
2013,08,14,10,06,17.60
2013,08,14,10,07,17.60
2013,08,14,10,08,17.60
2013,08,14,10,09,17.60
2013,08,14,10,10,17.60
2013,08,14,10,11,17.70
2013,08,14,10,12,17.70
2013,08,14,10,13,17.70
2013,08,14,10,14,17.70
2013,08,14,10,15,17.70
2013,08,14,10,16,17.70
2013,08,14,10,17,17.70
2013,08,14,10,18,17.80
2013,08,14,10,19,17.80
2013,08,14,10,20,17.80
2013,08,14,10,21,17.80
2013,08,14,10,22,17.80
2013,08,14,10,23,17.80
2013,08,14,10,24,17.80
2013,08,14,10,25,17.80
2013,08,14,10,26,17.80
2013,08,14,10,27,17.90
2013,08,14,10,28,17.90
2013,08,14,10,29,17.90
2013,08,14,10,30,17.90
2013,08,14,10,31,18.00
2013,08,14,10,32,18.00
2013,08,14,10,33,18.00
2013,08,14,10,34,18.10
2013,08,14,10,35,18.10
2013,08,14,10,36,18.10
2013,08,14,10,37,18.20
2013,08,14,10,38,18.20
2013,08,14,10,39,18.20
2013,08,14,10,40,18.30
2013,08,14,10,41,18.30
2013,08,14,10,42,18.30
2013,08,14,10,43,18.30
2013,08,14,10,44,18.40
2013,08,14,10,45,18.40
2013,08,14,10,46,18.40
2013,08,14,10,47,18.50
2013,08,14,10,48,18.50
2013,08,14,10,49,18.60
2013,08,14,10,50,18.60
2013,08,14,10,51,18.60
2013,08,14,10,52,18.70
2013,08,14,10,53,18.70
2013,08,14,10,54,18.70
2013,08,14,10,55,18.80
2013,08,14,10,56,18.80
2013,08,14,10,57,18.80
2013,08,14,10,58,18.80
2013,08,14,10,59,18.80
2013,08,14,11,00,18.90
2013,08,14,11,01,18.90
2013,08,14,11,02,18.90
2013,08,14,11,03,19.00
2013,08,14,11,04,19.00
2013,08,14,11,05,19.10
2013,08,14,11,06,19.10
2013,08,14,11,07,19.10
2013,08,14,11,08,19.10
2013,08,14,11,09,19.20
2013,08,14,11,10,19.20
2013,08,14,11,11,19.20
2013,08,14,11,12,19.20
2013,08,14,11,13,19.30
2013,08,14,11,14,19.30
2013,08,14,11,15,19.30
2013,08,14,11,16,19.30
2013,08,14,11,17,19.40
2013,08,14,11,18,19.40
2013,08,14,11,19,19.40
2013,08,14,11,20,19.40
2013,08,14,11,21,19.40
2013,08,14,11,22,19.40
2013,08,14,11,23,19.40
2013,08,14,11,24,19.40
2013,08,14,11,25,19.40
2013,08,14,11,26,19.40
2013,08,14,11,27,19.40
2013,08,14,11,28,19.40
2013,08,14,11,29,19.40
2013,08,14,11,30,19.40
2013,08,14,11,31,19.40
2013,08,14,11,32,19.40
2013,08,14,11,33,19.40
2013,08,14,11,34,19.40
2013,08,14,11,35,19.50
2013,08,14,11,36,19.50
2013,08,14,11,37,19.50
2013,08,14,11,38,19.50
2013,08,14,11,39,19.50
2013,08,14,11,40,19.50
2013,08,14,11,41,19.50
2013,08,14,11,42,19.40
2013,08,14,11,43,19.40
2013,08,14,11,44,19.40
2013,08,14,11,45,19.40
2013,08,14,11,46,19.40
2013,08,14,11,47,19.40
2013,08,14,11,48,19.40
2013,08,14,11,49,19.40
2013,08,14,11,50,19.40
2013,08,14,11,51,19.40
2013,08,14,11,52,19.40
2013,08,14,11,53,19.40
2013,08,14,11,54,19.50
2013,08,14,11,55,19.50
2013,08,14,11,56,19.60
2013,08,14,11,57,19.60
2013,08,14,11,58,19.60
2013,08,14,11,59,19.60
2013,08,14,12,00,19.60
2013,08,14,12,01,19.60
2013,08,14,12,02,19.60
2013,08,14,12,03,19.60
2013,08,14,12,04,19.60
2013,08,14,12,05,19.60
2013,08,14,12,06,19.70
2013,08,14,12,07,19.60
2013,08,14,12,08,19.60
2013,08,14,12,09,19.60
2013,08,14,12,10,19.60
2013,08,14,12,11,19.70
2013,08,14,12,12,19.70
2013,08,14,12,13,19.70
2013,08,14,12,14,19.80
2013,08,14,12,15,19.80
2013,08,14,12,16,19.80
2013,08,14,12,17,19.80
2013,08,14,12,18,19.80
2013,08,14,12,19,19.80
2013,08,14,12,20,19.90
2013,08,14,12,21,20.00
2013,08,14,12,22,20.00
2013,08,14,12,23,20.10
2013,08,14,12,24,20.10
2013,08,14,12,25,20.20
2013,08,14,12,26,20.30
2013,08,14,12,27,20.40
2013,08,14,12,28,20.50
2013,08,14,12,29,20.60
2013,08,14,12,30,20.70
2013,08,14,12,31,20.70
2013,08,14,12,32,20.80
2013,08,14,12,33,20.80
2013,08,14,12,34,20.80
2013,08,14,12,35,20.80
2013,08,14,12,36,20.80
2013,08,14,12,37,20.70
2013,08,14,12,38,20.70
2013,08,14,12,39,20.70
2013,08,14,12,40,20.70
2013,08,14,12,41,20.70
2013,08,14,12,42,20.70
2013,08,14,12,43,20.70
2013,08,14,12,44,20.70
2013,08,14,12,45,20.70
2013,08,14,12,46,20.70
2013,08,14,12,47,20.70
2013,08,14,12,48,20.70
2013,08,14,12,49,20.70
2013,08,14,12,50,20.70
2013,08,14,12,51,20.70
2013,08,14,12,52,20.70
2013,08,14,12,53,20.70
2013,08,14,12,54,20.70
2013,08,14,12,55,20.70
2013,08,14,12,56,20.70
2013,08,14,12,57,20.70
2013,08,14,12,58,20.70
2013,08,14,12,59,20.70
2013,08,14,13,00,20.70
2013,08,14,13,01,20.70
2013,08,14,13,02,20.70
2013,08,14,13,03,20.70
2013,08,14,13,04,20.70
2013,08,14,13,05,20.70
2013,08,14,13,06,20.70
2013,08,14,13,07,20.70
2013,08,14,13,08,20.60
2013,08,14,13,09,20.60
2013,08,14,13,10,20.60
2013,08,14,13,11,20.50
2013,08,14,13,12,20.50
2013,08,14,13,13,20.50
2013,08,14,13,14,20.40
2013,08,14,13,15,20.40
2013,08,14,13,16,20.40
2013,08,14,13,17,20.40
2013,08,14,13,18,20.30
2013,08,14,13,19,20.30
2013,08,14,13,20,20.30
2013,08,14,13,21,20.30
2013,08,14,13,22,20.30
2013,08,14,13,23,20.30
2013,08,14,13,24,20.20
2013,08,14,13,25,20.20
2013,08,14,13,26,20.20
2013,08,14,13,27,20.10
2013,08,14,13,28,20.10
2013,08,14,13,29,20.10
2013,08,14,13,30,20.10
2013,08,14,13,31,20.10
2013,08,14,13,32,20.10
2013,08,14,13,33,20.10
2013,08,14,13,34,20.10
2013,08,14,13,35,20.10
2013,08,14,13,36,20.00
2013,08,14,13,37,20.00
2013,08,14,13,38,20.10
2013,08,14,13,39,20.10
2013,08,14,13,40,20.10
2013,08,14,13,41,20.10
2013,08,14,13,42,20.10
2013,08,14,13,43,20.10
2013,08,14,13,44,20.10
2013,08,14,13,45,20.10
2013,08,14,13,46,20.10
2013,08,14,13,47,20.10
2013,08,14,13,48,20.10
2013,08,14,13,49,20.10
2013,08,14,13,50,20.00
2013,08,14,13,51,20.00
2013,08,14,13,52,20.00
2013,08,14,13,53,20.00
2013,08,14,13,54,20.00
2013,08,14,13,55,20.10
2013,08,14,13,56,20.10
2013,08,14,13,57,20.10
2013,08,14,13,58,20.10
2013,08,14,13,59,20.10
2013,08,14,14,00,20.10
2013,08,14,14,01,20.10
2013,08,14,14,02,20.10
2013,08,14,14,03,20.10
2013,08,14,14,04,20.10
2013,08,14,14,05,20.10
2013,08,14,14,06,20.10
2013,08,14,14,07,20.10
2013,08,14,14,08,20.10
2013,08,14,14,09,20.10
2013,08,14,14,10,20.10
2013,08,14,14,11,20.10
2013,08,14,14,12,20.10
2013,08,14,14,13,20.10
2013,08,14,14,14,20.10
2013,08,14,14,15,20.10
2013,08,14,14,16,20.10
2013,08,14,14,17,20.20
2013,08,14,14,18,20.20
2013,08,14,14,19,20.20
2013,08,14,14,20,20.20
2013,08,14,14,21,20.20
2013,08,14,14,22,20.20
2013,08,14,14,23,20.20
2013,08,14,14,24,20.20
2013,08,14,14,25,20.30
2013,08,14,14,26,20.20
2013,08,14,14,27,20.20
2013,08,14,14,28,20.20
2013,08,14,14,29,20.20
2013,08,14,14,30,20.20
2013,08,14,14,31,20.20
2013,08,14,14,32,20.20
2013,08,14,14,33,20.20
2013,08,14,14,34,20.20
2013,08,14,14,35,20.20
2013,08,14,14,36,20.20
2013,08,14,14,37,20.30
2013,08,14,14,38,20.30
2013,08,14,14,39,20.30
2013,08,14,14,40,20.30
2013,08,14,14,41,20.40
2013,08,14,14,42,20.40
2013,08,14,14,43,20.40
2013,08,14,14,44,20.40
2013,08,14,14,45,20.40
2013,08,14,14,46,20.50
2013,08,14,14,47,20.50
2013,08,14,14,48,20.60
2013,08,14,14,49,20.60
2013,08,14,14,50,20.70
2013,08,14,14,51,20.70
2013,08,14,14,52,20.80
2013,08,14,14,53,20.80
2013,08,14,14,54,20.80
2013,08,14,14,55,20.80
2013,08,14,14,56,20.80
2013,08,14,14,57,20.90
2013,08,14,14,58,20.90
2013,08,14,14,59,21.00
2013,08,14,15,00,21.00
2013,08,14,15,01,21.10
2013,08,14,15,02,21.10
2013,08,14,15,03,21.00
2013,08,14,15,04,21.00
2013,08,14,15,05,21.00
2013,08,14,15,06,21.00
2013,08,14,15,07,21.00
2013,08,14,15,08,21.00
2013,08,14,15,09,21.00
2013,08,14,15,10,21.10
2013,08,14,15,11,21.10
2013,08,14,15,12,21.10
2013,08,14,15,13,21.10
2013,08,14,15,14,21.10
2013,08,14,15,15,21.20
2013,08,14,15,16,21.20
2013,08,14,15,17,21.20
2013,08,14,15,18,21.20
2013,08,14,15,19,21.20
2013,08,14,15,20,21.30
2013,08,14,15,21,21.30
2013,08,14,15,22,21.30
2013,08,14,15,23,21.40
2013,08,14,15,24,21.40
2013,08,14,15,25,21.40
2013,08,14,15,26,21.40
2013,08,14,15,27,21.50
2013,08,14,15,28,21.50
2013,08,14,15,29,21.50
2013,08,14,15,30,21.60
2013,08,14,15,31,21.60
2013,08,14,15,32,21.60
2013,08,14,15,33,21.60
2013,08,14,15,34,21.60
2013,08,14,15,35,21.60
2013,08,14,15,36,21.60
2013,08,14,15,37,21.60
2013,08,14,15,38,21.60
2013,08,14,15,39,21.70
2013,08,14,15,40,21.70
2013,08,14,15,41,21.70
2013,08,14,15,42,21.70
2013,08,14,15,43,21.70
2013,08,14,15,44,21.70
2013,08,14,15,45,21.70
2013,08,14,15,46,21.70
2013,08,14,15,47,21.70
2013,08,14,15,48,21.70
2013,08,14,15,49,21.70
2013,08,14,15,50,21.80
2013,08,14,15,51,21.80
2013,08,14,15,52,21.80
2013,08,14,15,53,21.80
2013,08,14,15,54,21.80
2013,08,14,15,55,21.80
2013,08,14,15,56,21.80
2013,08,14,15,57,21.80
2013,08,14,15,58,21.80
2013,08,14,15,59,21.80
2013,08,14,16,00,21.80
2013,08,14,16,01,21.90
2013,08,14,16,02,21.90
2013,08,14,16,03,21.90
2013,08,14,16,04,21.90
2013,08,14,16,05,21.90
2013,08,14,16,06,21.90
2013,08,14,16,07,21.90
2013,08,14,16,08,21.90
2013,08,14,16,09,21.90
2013,08,14,16,10,21.90
2013,08,14,16,11,21.90
2013,08,14,16,12,21.90
2013,08,14,16,13,22.00
2013,08,14,16,14,22.00
2013,08,14,16,15,22.00
2013,08,14,16,16,22.00
2013,08,14,16,17,22.00
2013,08,14,16,18,22.10
2013,08,14,16,19,22.10
2013,08,14,16,20,22.10
2013,08,14,16,21,22.10
2013,08,14,16,22,22.10
2013,08,14,16,23,22.10
2013,08,14,16,24,22.10
2013,08,14,16,25,22.10
2013,08,14,16,26,22.00
2013,08,14,16,27,22.10
2013,08,14,16,28,22.00
2013,08,14,16,29,22.10
2013,08,14,16,30,22.00
2013,08,14,16,31,22.00
2013,08,14,16,32,22.00
2013,08,14,16,33,21.90
2013,08,14,16,34,21.90
2013,08,14,16,35,21.90
2013,08,14,16,36,21.80
2013,08,14,16,37,21.80
2013,08,14,16,38,21.80
2013,08,14,16,39,21.80
2013,08,14,16,40,21.80
2013,08,14,16,41,21.80
2013,08,14,16,42,21.70
2013,08,14,16,43,21.70
2013,08,14,16,44,21.70
2013,08,14,16,45,21.60
2013,08,14,16,46,21.60
2013,08,14,16,47,21.50
2013,08,14,16,48,21.50
2013,08,14,16,49,21.40
2013,08,14,16,50,21.40
2013,08,14,16,51,21.30
2013,08,14,16,52,21.30
2013,08,14,16,53,21.20
2013,08,14,16,54,21.20
2013,08,14,16,55,21.20
2013,08,14,16,56,21.10
2013,08,14,16,57,21.10
2013,08,14,16,58,21.10
2013,08,14,16,59,21.00
2013,08,14,17,00,21.00
2013,08,14,17,01,20.90
2013,08,14,17,02,20.90
2013,08,14,17,03,20.90
2013,08,14,17,04,20.80
2013,08,14,17,05,20.80
2013,08,14,17,06,20.80
2013,08,14,17,07,20.80
2013,08,14,17,08,20.70
2013,08,14,17,09,20.70
2013,08,14,17,10,20.70
2013,08,14,17,11,20.70
2013,08,14,17,12,20.70
2013,08,14,17,13,20.60
2013,08,14,17,14,20.60
2013,08,14,17,15,20.60
2013,08,14,17,16,20.60
2013,08,14,17,17,20.60
2013,08,14,17,18,20.60
2013,08,14,17,19,20.60